Location: Newark
(3.0500°N, 36.0167°E)
Time: 05:00:41
(UTC+00:00)

Vanguard 3 - All Passes

Search period start: 22 August 2019 00:00
Search period end: 01 September 2019 00:00
Orbit: 508 x 3263 km, 33.3° (Epoch: 21 August)

Date Brightness Start Highest point End Pass type
(mag) Time Alt. Az. Time Alt. Az. Time Alt. Az.
22 Aug - 00:32:41 10° W 00:39:23 32° SSW 00:50:14 10° SSE visible
22 Aug - 02:50:41 10° SW 02:57:10 15° S 03:05:06 10° SSE visible
22 Aug - 05:12:12 10° SSW 05:19:43 13° S 05:27:40 10° SSE daylight
22 Aug - 07:27:30 10° SSW 07:42:22 25° SSE 07:55:02 10° ESE daylight
22 Aug - 09:42:52 10° SW 10:01:07 56° SSE 10:12:38 10° ENE daylight
22 Aug - 12:01:10 10° WSW 12:15:59 56° NW 12:24:23 10° NE daylight
22 Aug - 14:26:43 10° NW 14:28:44 11° NW 14:30:33 10° NNW daylight
22 Aug - 21:08:30 10° NNW 21:12:16 26° NE 21:17:36 10° E night (unlit)
22 Aug - 23:18:30 10° WNW 23:24:09 48° SSW 23:34:02 10° SE visible
23 Aug - 01:33:32 10° SW 01:39:49 18° SSW 01:48:20 10° SSE visible
23 Aug - 03:55:19 10° SSW 04:00:08 12° S 04:05:25 10° SSE daylight
23 Aug - 06:11:37 10° SSW 06:23:25 18° SSE 06:35:00 10° SE daylight
23 Aug - 08:26:06 10° SW 08:43:56 40° SSE 08:57:06 10° E daylight
23 Aug - 10:42:44 10° SW 11:00:42 88° NW 11:11:07 10° NE daylight
23 Aug - 13:04:03 10° W 13:14:11 27° NW 13:20:48 10° NNE daylight
23 Aug - 22:05:09 10° NW 22:09:51 88° NE 22:17:55 10° SE night (unlit)
24 Aug - 00:17:49 10° WSW 00:23:37 24° SSW 00:32:19 10° SSE visible
24 Aug - 02:37:26 10° SSW 02:41:30 12° S 02:46:09 10° S visible
24 Aug - 04:56:18 10° SSW 05:03:56 13° SSE 05:12:06 10° SE daylight
24 Aug - 07:10:00 10° SSW 07:25:54 29° SSE 07:39:46 10° E daylight
24 Aug - 09:25:10 10° SW 09:44:24 65° SE 09:56:54 10° ENE daylight
24 Aug - 11:44:03 10° WSW 11:59:25 50° NW 12:08:28 10° NE daylight
24 Aug - 14:11:51 10° NW 14:12:47 10° NW 14:13:41 10° NNW daylight
24 Aug - 20:52:36 10° NNW 20:56:19 33° NE 21:01:35 10° ESE night (unlit)
24 Aug - 23:03:18 10° W 23:08:22 36° SSW 23:16:39 10° SE visible
25 Aug - 01:19:42 10° SW 01:24:09 14° SSW 01:29:38 10° SSE visible
25 Aug - 03:42:07 10° S 03:44:32 10° S 03:47:04 10° SSE daylight
25 Aug - 05:54:35 10° SSW 06:07:13 20° SSE 06:19:53 10° ESE daylight
25 Aug - 08:08:29 10° SW 08:27:12 46° SSE 08:41:26 10° E daylight
25 Aug - 10:25:16 10° WSW 10:43:56 79° NW 10:55:11 10° NE daylight
25 Aug - 12:47:35 10° W 12:57:52 24° NW 13:04:48 10° NNE daylight
25 Aug - 19:42:27 10° NNE 19:42:48 10° NE 19:43:08 10° NE night (unlit)
25 Aug - 21:49:39 10° WNW 21:54:01 68° SSW 22:01:09 10° SE night (unlit)
26 Aug - 00:03:21 10° WSW 00:07:56 17° SSW 00:14:13 10° SSE visible
26 Aug - 04:40:06 10° S 04:48:04 14° SSE 04:56:44 10° SE daylight
26 Aug - 06:52:37 10° SSW 07:09:16 33° SSE 07:24:15 10° E daylight
26 Aug - 09:07:37 10° SW 09:27:31 74° SE 09:40:59 10° ENE daylight
26 Aug - 11:27:01 10° WSW 11:42:46 45° NW 11:52:27 10° NNE daylight
26 Aug - 20:36:45 10° NW 20:40:26 43° NE 20:45:32 10° ESE night (unlit)
26 Aug - 22:48:19 10° W 22:52:42 25° SSW 22:59:13 10° SSE night (unlit)
27 Aug - 05:37:35 10° SSW 05:50:51 23° SSE 06:04:33 10° ESE daylight
27 Aug - 07:50:59 10° SW 08:10:16 53° SE 08:25:34 10° ENE daylight
27 Aug - 10:07:55 10° WSW 10:27:03 71° NW 10:39:09 10° NE daylight
27 Aug - 12:31:12 10° W 12:41:33 23° NW 12:48:46 10° NNE daylight
27 Aug - 19:25:00 10° N 19:26:58 14° NE 19:29:04 10° ENE night (unlit)
27 Aug - 21:34:15 10° WNW 21:38:17 47° SSW 21:44:23 10° SE night (unlit)
27 Aug - 23:49:44 10° SW 23:52:22 12° SSW 23:55:28 10° S visible
28 Aug - 04:23:42 10° S 04:32:06 15° SSE 04:41:25 10° SE daylight
28 Aug - 06:35:20 10° SSW 06:52:27 37° SSE 07:08:29 10° E daylight
28 Aug - 08:50:11 10° SW 09:10:29 82° SE 09:24:54 10° ENE daylight
28 Aug - 11:10:05 10° WSW 11:26:04 41° NW 11:36:22 10° NNE daylight
28 Aug - 20:20:57 10° NW 20:24:38 63° NE 20:29:28 10° ESE night (unlit)
28 Aug - 22:33:41 10° WSW 22:37:05 17° SSW 22:41:37 10° SSE night (unlit)
29 Aug - 05:20:38 10° SSW 05:34:19 25° SSE 05:48:59 10° ESE daylight
29 Aug - 07:33:39 10° SW 07:53:11 60° SE 08:09:30 10° ENE daylight
29 Aug - 09:50:42 10° WSW 10:10:03 64° NW 10:22:59 10° NE daylight
29 Aug - 12:14:52 10° WNW 12:25:16 21° NW 12:32:43 10° NNE daylight
29 Aug - 19:08:27 10° NNW 19:11:10 19° NE 19:14:01 10° E night (unlit)
29 Aug - 21:19:01 10° W 21:22:36 31° SSW 21:27:35 10° SSE night (unlit)
30 Aug - 04:07:10 10° S 04:15:59 16° SSE 04:26:03 10° ESE daylight
30 Aug - 06:18:10 10° SSW 06:35:28 42° SE 06:52:30 10° E daylight
30 Aug - 08:32:54 10° SW 08:53:18 89° NW 09:08:41 10° NE daylight
30 Aug - 10:53:16 10° W 11:09:21 37° NW 11:20:13 10° NNE daylight
30 Aug - 20:05:14 10° WNW 20:08:53 85° SW 20:13:21 10° SE night (unlit)
30 Aug - 22:20:02 10° SW 22:21:31 11° SSW 22:23:11 10° S night (unlit)
31 Aug - 05:03:45 10° SSW 05:17:38 28° SSE 05:33:10 10° E daylight
31 Aug - 07:16:27 10° SW 07:35:57 67° SE 07:53:15 10° ENE daylight
31 Aug - 09:33:39 10° WSW 09:52:59 58° NW 10:06:43 10° NE daylight
31 Aug - 11:58:37 10° WNW 12:09:01 20° NNW 12:16:42 10° NNE daylight
31 Aug - 18:52:06 10° NNW 18:55:26 28° NNE 18:58:42 10° E night (unlit)
31 Aug - 21:04:01 10° WSW 21:06:58 20° SSW 21:10:39 10° SSE night (unlit)
